Location: Fort Worth, Tx
(32.7431°N, 97.3695°W)
Time: 12:37:25
(UTC-05:00)

Explorer 11/Cluster Stage 4 - All Passes

Search period start: 22 February 2024 00:00
Search period end: 03 March 2024 00:00
Orbit: 465 x 1224 km, 28.8° (Epoch: 21 February)

Date Brightness Start Highest point End Pass type
(mag) Time Alt. Az. Time Alt. Az. Time Alt. Az.
22 Feb - 01:55:54 10° SSW 02:02:04 25° SSE 02:07:46 10° ESE night (unlit)
22 Feb - 03:43:10 10° WSW 03:50:26 48° SSE 03:56:38 10° E visible
22 Feb - 05:31:57 10° WSW 05:38:51 61° S 05:44:26 10° E visible
22 Feb - 07:21:10 10° W 07:26:57 45° SSW 07:31:37 10° ESE visible
22 Feb - 09:11:10 10° WSW 09:14:20 17° SSW 09:17:11 10° S daylight
23 Feb - 01:38:52 10° SSW 01:45:22 27° SSE 01:51:27 10° E night (unlit)
23 Feb - 03:26:18 10° WSW 03:33:48 51° SSE 03:40:17 10° E visible
23 Feb - 05:15:09 10° W 05:22:18 63° S 05:28:08 10° ESE visible
23 Feb - 07:04:25 10° W 07:10:27 44° SSW 07:15:20 10° SE visible
23 Feb - 08:54:38 10° WSW 08:57:52 16° SSW 09:00:44 10° S daylight
23 Feb - 23:39:31 10° SSE 23:40:33 10° SE 23:41:35 10° SE night (unlit)
24 Feb - 01:21:54 10° SSW 01:28:39 30° SSE 01:35:03 10° E night (unlit)
24 Feb - 03:09:27 10° WSW 03:17:07 54° SSE 03:23:52 10° E night (unlit)
24 Feb - 04:58:20 10° W 05:05:43 64° S 05:11:48 10° ESE visible
24 Feb - 06:47:39 10° W 06:53:55 43° SSW 06:59:01 10° SE visible
24 Feb - 08:38:06 10° WSW 08:41:20 16° SSW 08:44:15 10° S daylight
24 Feb - 23:21:20 10° SSE 23:23:49 12° SE 23:26:20 10° SE night (unlit)
25 Feb - 01:04:58 10° SW 01:11:53 32° SSE 01:18:35 10° E night (unlit)
25 Feb - 02:52:36 10° WSW 03:00:26 56° S 03:07:25 10° E night (unlit)
25 Feb - 04:41:30 10° W 04:49:05 64° S 04:55:25 10° ESE visible
25 Feb - 06:30:52 10° W 06:37:20 42° SSW 06:42:39 10° SE visible
25 Feb - 08:21:31 10° WSW 08:24:47 15° SSW 08:27:43 10° S daylight
25 Feb - 23:03:50 10° S 23:07:04 13° SE 23:10:22 10° ESE night (unlit)
26 Feb - 00:48:06 10° SW 00:55:07 35° SSE 01:02:04 10° E night (unlit)
26 Feb - 02:35:47 10° WSW 02:43:41 59° S 02:50:55 10° E night (unlit)
26 Feb - 04:24:41 10° W 04:32:25 64° S 04:38:59 10° ESE visible
26 Feb - 06:14:03 10° W 06:20:44 41° SSW 06:26:15 10° SE visible
26 Feb - 08:04:57 10° WSW 08:08:11 15° SSW 08:11:08 10° S daylight
26 Feb - 22:46:35 10° S 22:50:18 14° SE 22:54:08 10° ESE night (unlit)
27 Feb - 00:31:15 10° SW 00:38:19 37° SSE 00:45:29 10° E night (unlit)
27 Feb - 02:18:59 10° WSW 02:26:55 61° S 02:34:22 10° E night (unlit)
27 Feb - 04:07:52 10° W 04:15:42 64° S 04:22:32 10° ESE visible
27 Feb - 05:57:15 10° W 06:04:04 40° SSW 06:09:47 10° SE visible
27 Feb - 07:48:22 10° WSW 07:51:33 14° SW 07:54:29 10° S daylight
27 Feb - 22:29:29 10° S 22:33:32 15° SE 22:37:45 10° ESE night (unlit)
28 Feb - 00:14:27 10° SW 00:21:31 39° SSE 00:28:49 10° E night (unlit)
28 Feb - 02:02:13 10° WSW 02:10:09 62° S 02:17:46 10° E night (unlit)
28 Feb - 03:51:03 10° W 03:58:58 63° S 04:06:01 10° ESE visible
28 Feb - 05:40:26 10° W 05:47:21 39° SSW 05:53:17 10° SE visible
28 Feb - 07:31:48 10° WSW 07:34:54 14° SW 07:37:45 10° S visible
28 Feb - 22:12:31 10° S 22:16:45 16° SSE 22:21:15 10° ESE visible
28 Feb - 23:57:42 10° SW 00:04:42 41° SSE 00:12:07 10° E night (unlit)
29 Feb - 01:45:28 10° WSW 01:53:21 64° S 02:01:07 10° E night (unlit)
29 Feb - 03:34:14 10° W 03:42:12 63° S 03:49:26 10° ESE visible
29 Feb - 05:23:37 10° W 05:30:37 38° SSW 05:36:43 10° SE visible
29 Feb - 07:15:16 10° WSW 07:18:11 13° SW 07:20:56 10° S visible
29 Feb - 21:55:37 10° S 21:59:58 17° SSE 22:04:40 10° ESE visible
29 Feb - 23:40:59 10° SW 23:47:53 43° SSE 23:55:23 10° E night (unlit)
01 Mar - 01:28:45 10° WSW 01:36:32 65° S 01:44:25 10° E night (unlit)
01 Mar - 03:17:27 10° W 03:25:23 62° S 03:32:49 10° ESE visible
01 Mar - 05:06:48 10° W 05:13:50 36° SSW 05:20:06 10° SE visible
01 Mar - 06:58:47 10° WSW 07:01:28 12° SW 07:04:00 10° SSW visible
01 Mar - 21:38:46 10° S 21:43:11 18° SSE 21:48:01 10° ESE visible
01 Mar - 23:24:18 10° SW 23:31:04 44° SSE 23:38:35 10° E night (unlit)
02 Mar - 01:12:03 10° WSW 01:19:43 66° S 01:27:41 10° E night (unlit)
02 Mar - 03:00:40 10° W 03:08:35 60° S 03:16:09 10° ESE night (unlit)
02 Mar - 04:50:01 10° W 04:57:02 35° SSW 05:03:24 10° SE visible
02 Mar - 06:42:25 10° SW 06:44:42 12° SW 06:46:54 10° SSW visible
02 Mar - 21:22:00 10° SSW 21:26:25 19° SSE 21:31:19 10° ESE visible
02 Mar - 23:07:40 10° SW 23:14:16 46° SSE 23:21:45 10° E visible
